Showing default

LIZZIESAT-3 (LS-3), 63233

Orbit data source: Space-Track

LIZZIESAT-3 (LS-3), 63233 is a payload satellite owned by Sidus Space (US) in SSO that was launched on Sat, 15 Mar 2025 UTC via an FALCON 9 launch vehicle from the Air Force Western Test Range (AFWTR). Payload-class satellites include a variety of spacecraft equipped with specific instruments for various scientific and technological missions. These include communications satellites like Starlink; space stations such as the ISS; scientific satellites like the Hubble; Earth observation satellites from companies like Planet Labs, Umbra, and HawkEye 360; GPS; miniature CubeSats for education and research; and military/defense satellites.

Loading next visibility...
Identifier
63233, 2025-052Z
Orbit
SSO
Country
Flag of USUS
Related business
Manufacturer
Sidus Space
Mission
Operational Commercial Technology
Bus & Motor
LIZZIESAT, Unknown motor
Mass
~100 kg wet, ~100 kg dry
Launch date (UTC)
2025-03-15 (2 years ago)
Launch vehicle
FALCON 9
Launch site
Air Force Western Test Range (AFWTR)
Object type
Payload
Rocket body
Debris
Shape & HBR
Oct Cyl + 8 Pan, 0.7 m
Radar Cross Section
1.008 m², Medium (>0.1 m² and < 1m²)

Expand to show TLE details & history
Last TLE update: 9 hours ago

TLE from 9 hours ago
0 LIZZIESAT-3 (LS-3)
1 63233U 25052Z   26265.12446234  .00003193  00000-0  14074-3 0  9993
2 63233  97.3763 155.2279 0006049 164.0407 196.1021 15.22512440 84554
Epoch: 2026-09-22T02:59Z
TLE epoch observation values (Epoch: 2026-09-22T02:59:13.546Z)
Latitude
-0.00003°
Longitude
109.42702°
Altitude
505.357 km
Speed
7.609 km/s
True Right ascension
10h 20m 54s
True Declination
0° 00' 00"
Sunlit
Object was in daylight at epoch
Visualization orbit readout
Latitude
Unknown
Longitude
Unknown
Altitude
Unknown
Speed
Unknown
Apparent Right ascension
Unknown
Apparent Declination
Unknown
Sunlit
N/A
Visualization observer readout
Local Sidereal Time
05:03:18
Azimuth
Unknown
Elevation
Unknown
Doppler factor
Unknown
Orbital elements
Apogee altitude
499.384 km
Perigee altitude
491.069 km
Semi-major axis
6,873.363 km
Eccentricity
0.0006
Inclination
97.3763°
RAAN
155.2279°
Arg. of periapsis
164.0407°
True anomaly
196.08289°
Mean anomaly
196.1021°
Eccentric anomaly
196.09249°
Mean motion
3.80881 °/min
Orbital period
94.52 mins
BSTAR
0.00014074
Loading maneuver chart data...
Computing Atmospheric mass density...
Loading historical data...
Loading historical data...
Loading historical data...
Loading historical data...
Loading historical data...
Loading historical data...
Loading historical data...

Documentation

Showing up to 5 results
|